Bettles, AK

3:56 PM AKDT on September 21, 2017 (GMT -0800)
Bettles

Weather History for PABT - October, 2012

Change the Weather History Date:

Monday, October 8, 2012

  Actual Average Record
Temperature  
Mean Temperature 35 °F -  
Max Temperature 42 °F 32 °F 45 °F (1969)
Min Temperature 28 °F 21 °F -4 °F (1988)
Degree Days  
Heating Degree Days 30    
Moisture  
Dew Point 26 °F    
Average Humidity 75    
Maximum Humidity 100    
Minimum Humidity 36    
Precipitation  
Precipitation 0.00 in - - ()
Sea Level Pressure  
Sea Level Pressure 30.28 in    
Wind  
Wind Speed 2 mph (NNW)    
Max Wind Speed 7 mph    
Max Gust Speed -    
Visibility 10 miles    
Events Fog    
Averages and records for this station are not official NWS values.
T = Trace of Precipitation, MM = Missing Value Source: NWS Daily Summary

Daily Weather History Graph

Daily Weather History Graph

Search for Another Location

Airport or City:

Trip Planner

Search our weather history database for the weather conditions in past years. The results will help you decide how hot, cold, wet, or windy it might be!

Date:

Astronomy

Oct. 08, 2012 Rise Set
Actual Time 8:43 AM AKDT 7:01 PM AKDT
Civil Twilight 7:50 AM AKDT 7:54 PM AKDT
Nautical Twilight 6:48 AM AKDT 8:55 PM AKDT
Astronomical Twilight 5:43 AM AKDT 10:01 PM AKDT
Moon 11:58 PM AKDT (10/8) 5:37 PM AKDT (10/8)
Length of Visible Light 12h 04m
Length of Day
10h 17m
Last Quarter, 45% of the Moon is Illuminated
Oct 8
Last Quarter
Oct 15
New
Oct 21
First Quarter
Oct 29
Full
Nov 6
Last Quarter

Hourly Weather History & Observations

Time (AKDT) Temp. Windchill Dew Point Humidity Pressure Visibility Wind Dir Wind Speed Gust Speed Precip Events Conditions
12:53 AM 32.0 °F - 32.0 °F 100% 30.25 in 10.0 mi Calm Calm - N/A   Mostly Cloudy
1:53 AM 32.0 °F - 30.9 °F 96% 30.23 in 10.0 mi Calm Calm - N/A   Mostly Cloudy
2:53 AM 32.0 °F - 30.9 °F 96% 30.24 in 10.0 mi Calm Calm - N/A   Mostly Cloudy
3:26 AM 30.2 °F - 30.2 °F 100% 30.19 in 10.0 mi Calm Calm - N/A   Mostly Cloudy
3:53 AM 30.9 °F - 30.0 °F 96% 30.23 in 10.0 mi Calm Calm - N/A   Mostly Cloudy
4:53 AM 30.9 °F - 30.0 °F 96% 30.23 in 10.0 mi Calm Calm - N/A   Overcast
5:31 AM 30.2 °F 26.7 °F 28.4 °F 93% 30.18 in 10.0 mi NNW 3.5 mph - N/A   Mostly Cloudy
5:53 AM 30.0 °F 25.2 °F 28.0 °F 92% 30.22 in 10.0 mi NW 4.6 mph - N/A   Mostly Cloudy
6:53 AM 28.9 °F - 27.0 °F 92% 30.22 in 10.0 mi Calm Calm - N/A   Scattered Clouds
7:53 AM 30.0 °F 26.5 °F 28.0 °F 92% 30.23 in 10.0 mi NNW 3.5 mph - N/A   Mostly Cloudy
8:53 AM 28.9 °F 25.2 °F 28.0 °F 96% 30.23 in 10.0 mi North 3.5 mph - N/A Fog Patches of Fog
9:53 AM 28.9 °F 25.2 °F 26.1 °F 89% 30.24 in 10.0 mi North 3.5 mph - N/A Fog Partly Cloudy
10:53 AM 30.9 °F 26.2 °F 27.0 °F 85% 30.26 in 10.0 mi NNW 4.6 mph - N/A Fog Partly Cloudy
11:53 AM 34.0 °F 31.0 °F 28.0 °F 79% 30.27 in 10.0 mi Variable 3.5 mph - N/A Fog Partly Cloudy
12:53 PM 36.0 °F 33.3 °F 28.9 °F 76% 30.27 in 10.0 mi WNW 3.5 mph - N/A Fog Scattered Clouds
1:53 PM 37.0 °F 33.3 °F 26.1 °F 65% 30.28 in 10.0 mi NW 4.6 mph - N/A   Mostly Cloudy
2:53 PM 39.0 °F 35.7 °F 25.0 °F 57% 30.30 in 10.0 mi WNW 4.6 mph - N/A   Mostly Cloudy
3:53 PM 42.1 °F 37.7 °F 24.1 °F 49% 30.31 in 10.0 mi North 6.9 mph - N/A   Mostly Cloudy
4:53 PM 41.0 °F - 24.1 °F 51% 30.32 in 10.0 mi Calm Calm - N/A   Scattered Clouds
5:53 PM 39.9 °F 35.8 °F 21.0 °F 47% 30.33 in 10.0 mi North 5.8 mph - N/A   Partly Cloudy
6:53 PM 37.0 °F 31.6 °F 19.9 °F 50% 30.35 in 10.0 mi North 6.9 mph - N/A   Partly Cloudy
7:53 PM 34.0 °F 28.0 °F 19.0 °F 54% 30.37 in 10.0 mi North 6.9 mph - N/A   Partly Cloudy
8:53 PM 32.0 °F 27.5 °F 18.0 °F 56% 30.40 in 10.0 mi NNW 4.6 mph - N/A   Clear
9:53 PM 32.0 °F 25.6 °F 17.1 °F 54% 30.42 in 10.0 mi North 6.9 mph - N/A   Clear
10:53 PM 30.9 °F 25.2 °F 16.0 °F 54% 30.44 in 10.0 mi North 5.8 mph - N/A   Clear